Cloud_Cover
100 45 4 18 100 93 36 1 0 0 9 8 49 8 100 100 100 100 36 0 26 100 100 100 97 100 100 27 0 100 6 17 5 0 0 0 99 99 7 5 80 85 56 58
100 100 42 2 4 3 75 100 18 0 0 22 62 10 0 78 100 100 100 80 63 74 100 100 100 100 100 100 39 63 37 100 86 5 0 0 0 60 100 100 88 21 100 59
7 6 48 100 44 5 1 0 0 0 0 0 0 9 21 71 4 77 26 32 91 17 98 100 100 100 100 100 100 100 100 53 20 60 3 0 0 0 17 98 100 100 100 100
5 5 5 5 23 10 5 1 0 0 0 0 0 1 13 60 99 73 61 71 74 100 38 96 100 100 100 100 100 48 95 96 87 39 10 1 0 0 0 0 19 100 100 100
0 0 0 0 0 0 0 0 0 0 0 3 0 2 0 0 1 96 100 100 100 100 100 99 96 98 100 100 100 100 95 98 100 89 5 5 5 5 0 0 0 0 5 41
0 0 0 0 0 0 0 0 0 0 0 0 0 0 0 0 0 5 100 100 100 100 100 100 100 10 10 100 100 100 100 87 60 68 52 5 5 5 5 8 2 0 0 0
0 0 0 0 0 0 0 0 2 0 2 17 10 1 0 0 1 0 45 58 98 98 91 100 100 100 5 15 100 100 100 100 100 36 100 95 6 8 18 94 54 5 0 0
5 0 0 0 0 0 0 0 6 76 5 5 100 4 27 29 13 99 0 2 3 94 72 81 79 92 98 5 68 100 100 100 100 100 100 100 100 18 12 97 100 26 5 5
5 4 0 0 0 0 0 0 4 5 26 99 80 90 100 100 99 2 100 7 0 0 9 39 5 5 92 100 100 86 96 100 100 100 100 100 100 99 49 97 100 100 98 48
2 5 0 0 0 4 2 4 5 5 27 34 100 100 98 86 56 68 18 6 2 0 8 100 100 36 5 73 100 97 100 100 100 96 100 100 100 100 100 72 100 100 88 49
0 1 0 0 1 5 3 4 4 62 87 59 100 100 100 100 100 81 100 96 99 44 63 100 100 100 67 66 87 100 100 100 100 100 98 100 100 100 99 55 92 100 100 100
0 0 5 0 0 5 5 1 4 76 31 35 73 100 96 18 95 96 100 100 82 96 99 100 100 100 100 20 80 78 100 100 100 100 96 100 100 100 100 18 84 100 100 100
0 0 1 0 6 1 0 0 5 29 62 67 86 92 96 7 10 2 100 100 100 100 100 99 36 100 100 100 64 67 16 100 100 100 100 100 100 100 100 100 100 100 100 100
0 0 0 0 0 1 0 0 0 1 5 5 3 0 5 6 4 12 100 100 100 100 100 99 100 97 96 63 100 100 83 69 100 100 100 100 100 100 100 100 92 99 100 100
0 2 3 2 0 4 4 0 0 0 0 4 0 0 0 39 15 55 65 100 100 100 100 100 100 100 97 75 100 94 100 100 97 100 100 100 100 100 100 100 100 99 34 92
0 0 0 0 0 0 0 0 0 0 0 0 0 2 8 44 5 4 5 100 100 100 100 100 100 100 100 100 100 100 32 5 9 55 100 97 100 100 100 100 100 100 100 100
4 0 4 4 0 0 0 0 5 0 0 0 2 5 5 2 5 5 5 5 15 100 100 100 100 100 80 100 100 100 100 99 100 100 100 95 13 64 100 100 100 100 100 100
0 0 3 5 1 0 0 0 5 4 5 5 78 96 94 28 47 6 5 5 7 76 42 100 100 100 100 100 100 100 100 100 100 100 100 100 100 100 93 87 100 100 100 100
5 0 5 5 40 1 0 18 5 26 4 5 32 99 98 79 57 31 18 5 5 1 6 100 100 100 100 100 100 100 100 100 100 100 100 97 77 100 100 98 100 100 100 100
0 3 6 94 100 72 1 5 5 5 52 100 100 100 100 91 67 5 5 0 0 0 0 0 84 100 100 100 62 100 100 100 100 100 100 100 100 100 100 97 100 73 57 60
35 71 64 35 100 7 5 5 3 80 6 3 4 8 5 5 5 5 4 2 0 0 0 0 0 1 71 100 100 100 100 100 100 100 100 100 100 100 100 100 98 100 100 100
5 29 53 59 100 54 5 56 5 2 0 1 4 5 5 5 5 5 5 0 0 0 3 0 0 0 0 0 51 100 100 100 100 100 100 100 100 94 97 100 100 100 98 100
4 0 5 5 3 0 0 0 0 0 0 5 5 5 5 5 5 5 0 0 3 5 0 0 5 5 5 5 5 5 86 100 100 100 100 97 100 100 99 73 54 99 91 84
5 1 5 19 9 1 0 0 0 0 0 5 0 0 2 5 3 0 0 3 5 5 5 5 5 5 5 5 5 6 39 88 100 100 100 100 100 88 46 40 100 100 100 100
10 5 5 14 0 5 0 0 0 0 0 0 0 3 5 0 0 0 2 6 14 22 19 10 8 8 6 34 34 19 41 100 100 100 100 100 100 100 100 100 64 99 100 100
5 22 84 15 5 5 2 0 0 0 0 0 1 5 5 0 2 5 5 67 100 100 100 100 97 51 6 59 66 50 73 100 100 100 100 100 100 100 100 100 100 100 41 5